Lexington Weather

Lexington, Massachusetts, USA

73°F
9/22/2021 1:48pm 
  • Lexington Conditions: Overcast
  • Temperature: 73.0°F / 22.8°CColder 2.2°F than last hour.
  • Dew Point: 68.2°FDecreased 0.3°Fsince last hour.
  • Relative Humidity: 85%Increased 5.0% since last hour.
  • Wind: Wind from W W 1 mph, 10-min avg: 3 mph, gust: 12 mph
  • Barometer: 30.10 in Steady
  • Visibility: 10 miles
  • Rain Today: 0.00 in
  •   

Regional Weather Roundup
for Boston / Norton, MA

        
000
ASUS41 KBOX 190504
RWRBOX

REGIONAL WEATHER ROUNDUP
NATIONAL WEATHER SERVICE BOSTON/NORTON MA
100 AM EDT SUN SEP 19 2021

NOTE:  "FAIR" INDICATES FEW OR NO CLOUDS BELOW 12,000 FEET WITH NO 
SIGNIFICANT WEATHER AND/OR OBSTRUCTIONS TO VISIBILITY.

MAZALL-190600-
EASTERN MASSACHUSETTS
  
CITY           SKY/WX    TMP DP  RH WIND       PRES   REMARKS
BOSTON         CLOUDY    70  66  87 NW6       30.02R                  
BEVERLY        LGT RAIN  67  66  97 NW5       30.01R                  
LAWRENCE       HVY RAIN  68  67  96 N3        30.05R FOG              
BEDFORD        CLOUDY    69  68  96 N5        30.02R                  
BLUE HILL      NOT AVBL                                               
NORWOOD        CLOUDY    68  65  90 CALM      30.02R                  
MARSHFIELD     CLOUDY    66  66 100 CALM      29.99F FOG              
PLYMOUTH       CLOUDY    67  66  97 CALM      30.00F                  
TAUNTON        MOCLDY    67  65  93 CALM      30.01S                  
NEW BEDFORD    MOCLDY    66  65  96 CALM      30.00R                  
$$

MAZALL-190600-
CAPE COD AND THE ISLANDS
  
CITY           SKY/WX    TMP DP  RH WIND       PRES   REMARKS
FALMOUTH       CLOUDY    66  66 100 N7        30.01R                  
HYANNIS        CLOUDY    66  66 100 N6        29.98S                  
CHATHAM        CLOUDY    65  65 100 CALM      30.00R                  
PROVINCETOWN   LGT RAIN  65  65 100 N9        30.00S                  
NANTUCKET      MOCLDY    69  67  93 NW5       29.98S                  
MARTHAS VNYRD  MOCLDY    61  61 100 NW5       29.99S FOG              
$$
 
MAZALL-190600-
CENTRAL AND WESTERN MASSACHUSETTS
  
CITY           SKY/WX    TMP DP  RH WIND       PRES   REMARKS
WORCESTER      CLOUDY    68  61  78 N9        30.06S                  
FITCHBURG      LGT RAIN  68  65  90 NW3       30.05S                  
ORANGE         PTCLDY    66  62  87 NW6       30.08S                  
SPRINGFIELD    PTCLDY    69  60  73 N13       30.04S                  
WESTFIELD      PTCLDY    69  63  81 N6        30.06R                  
NORTH ADAMS    PTCLDY    59  55  87 W3        30.12R                  
PITTSFIELD     CLEAR     58  54  86 NW8       30.11S                  
$$
 
RIZALL-190600-
RHODE ISLAND
  
CITY           SKY/WX    TMP DP  RH WIND       PRES   REMARKS
PROVIDENCE     PTCLDY    69  67  93 W5        30.02R                  
NEWPORT        CLEAR     67  66  97 N5        30.00R                  
BLOCK ISLAND   CLEAR     68  66  93 W9        30.00F                  
SMITHFIELD     PTCLDY    66  65  96 N7        30.03R                  
WESTERLY       PTCLDY    63  63 100 CALM      30.01S                  
$$
 
CTZALL-190600-
CONNECTICUT
  
CITY           SKY/WX    TMP DP  RH WIND       PRES   REMARKS
BRADLEY INTL   MOCLDY    68  64  87 NW6       30.05S                  
HARTFORD       PTCLDY    72  63  73 N7        30.04R                  
BRIDGEPORT     PTCLDY    73  64  73 NW12      30.03F                  
DANBURY        CLEAR     70  62  76 CALM      30.09R                  
GROTON         CLEAR     67  66  97 N6        30.00S                  
NEW HAVEN      PTCLDY    74  66  76 NW7       30.04R                  
CHESTER        FAIR      70  66  88 N10       30.04S                  
MERIDEN        CLEAR     70  63  78 NW6       30.04R                  
WILLIMANTIC    PTCLDY    67  65  93 CALM      30.03S                  
OXFORD         CLEAR     67  63  87 NW9       30.08S                  
$$

MEZ002-015-021-024-NHZ003-005-008-011-012-014-VTZ005-008-190600-
NORTHERN NEW ENGLAND
  
CITY           SKY/WX    TMP DP  RH WIND       PRES   REMARKS
PORTLAND ME    PTCLDY    63  61  93 N7        30.04R                  
BANGOR ME      MOCLDY    60  52  74 N15       30.05S                  
CONCORD NH     CLOUDY    64  54  69 NW6       30.05S                  
MANCHESTER NH  CLOUDY    70  57  63 N10       30.02S                  
NASHUA NH      CLOUDY    68  67  96 NW7       30.05S                  
PORTSMOUTH NH  CLOUDY    68  66  95 N7        30.03S                  
JAFFREY NH     PTCLDY    65  55  70 CALM      30.09R                  
KEENE NH       CLEAR     63  56  78 NE5       30.09S                  
BURLINGTON VT  CLEAR     54  52  93 CALM      30.13S                  
MT. WASHINGTON PTCLDY    43  12  28 N16         N/A                   
$$

NYZ052-076-190600-
EASTERN NEW YORK
  
CITY           SKY/WX    TMP DP  RH WIND       PRES   REMARKS
ALBANY         MOCLDY    58  58 100 N3        30.13S                  
NEW YORK CITY  PTCLDY    75  62  64 N12       30.06R                  
$$
 
ANZALL-190600-
MARINE OBSERVATIONS
  
STATION/POSITION TIME  TEMP    WIND        PRES    VSBY  WAVE
                       AIR SEA DIR/SP/G                  HT/PER
                 (UTC) (F)     (DEG/KT/KT) (MB)    (MI)  (FT/S)
BOSTON BUOY      0440      66   CALM  /  2 1016.3R
BUZZARDS BAY     0400          300/ 13/ 13 1016.4F
NANTUCKET SOUND  0450   71 72  320/ 12/ 16 1015.6R         1/ 9
MASS BAY-STELLWA 0404   66     310/  8/ 12 1015.2S  1 7/8  5/11
ISLE OF SHOALS   0400   66     290/  8/  9 1015.9R
S OF BLOCK IS    0426      71                N/A           5/ 9
$$

......................KEY.........................
  SKY/WX - SKY CONDITION/PRESENT WEATHER
  TMP    - TEMPERATURE IN FAHRENHEIT
  DWPT   - DEWPOINT IN FAHRENHEIT
  RH     - RELATIVE HUMIDITY IN PERCENT
  WIND   - DIRECTION AND SPEED IN MPH
  PRES   - MEAN SEA LEVEL PRESSURE IN INCHES OF HG
  WCI    - WIND CHILL INDEX
  VSB    - VISIBILITY IN MILES
  HX     - HEAT INDEX
  TC     - TEMPERATURE IN CELSIUS
  VRB    - VARIABLE WIND DIRECTION
  N/A    - NOT AVAILABLE
  
      

Other recent Regional Weather Roundups

Wed Sep 22, 1:04pm

Wed Sep 22, 12:05pm

Wed Sep 22, 11:04am

Wed Sep 22, 10:04am

Wed Sep 22, 9:04am

Wed Sep 22, 8:04am

Wed Sep 22, 7:04am

Wed Sep 22, 6:04am

Wed Sep 22, 5:04am

Wed Sep 22, 4:04am

Wed Sep 22, 3:04am

Wed Sep 22, 2:04am

Wed Sep 22, 1:04am

Wed Sep 22, 12:04am

Tue Sep 21, 11:04pm

Tue Sep 21, 10:04pm

Tue Sep 21, 9:04pm

Tue Sep 21, 8:04pm

Tue Sep 21, 7:04pm

Tue Sep 21, 6:04pm

Tue Sep 21, 5:04pm

Tue Sep 21, 4:04pm

Tue Sep 21, 3:04pm

Tue Sep 21, 2:04pm

Tue Sep 21, 1:04pm

Tue Sep 21, 12:04pm

Tue Sep 21, 11:04am

Tue Sep 21, 10:04am

Tue Sep 21, 9:04am

Tue Sep 21, 8:04am

Tue Sep 21, 7:04am

Tue Sep 21, 6:04am

Tue Sep 21, 5:04am

Tue Sep 21, 4:04am

Tue Sep 21, 3:04am

Tue Sep 21, 2:04am

Tue Sep 21, 1:04am

Tue Sep 21, 12:04am

Mon Sep 20, 11:04pm

Mon Sep 20, 10:04pm

Mon Sep 20, 9:04pm

Mon Sep 20, 8:04pm

Mon Sep 20, 7:04pm

Mon Sep 20, 6:04pm

Mon Sep 20, 5:04pm

Mon Sep 20, 4:04pm

Mon Sep 20, 3:04pm

Mon Sep 20, 2:04pm

Mon Sep 20, 1:04pm

Mon Sep 20, 12:04pm

Mon Sep 20, 11:04am

Mon Sep 20, 10:04am

Mon Sep 20, 9:04am

Mon Sep 20, 7:04am

Mon Sep 20, 6:04am

Mon Sep 20, 5:04am

Mon Sep 20, 4:04am

Mon Sep 20, 3:04am

Mon Sep 20, 2:04am

Mon Sep 20, 1:04am

Mon Sep 20, 12:04am

Sun Sep 19, 11:04pm

Sun Sep 19, 10:04pm

Sun Sep 19, 9:04pm

Sun Sep 19, 8:04pm

Sun Sep 19, 7:04pm

Sun Sep 19, 6:04pm

Sun Sep 19, 5:04pm

Sun Sep 19, 4:04pm

Sun Sep 19, 3:04pm

Sun Sep 19, 2:05pm

Sun Sep 19, 1:04pm

Sun Sep 19, 12:04pm

Sun Sep 19, 11:04am

Sun Sep 19, 10:05am

Sun Sep 19, 9:04am

Sun Sep 19, 8:04am

Sun Sep 19, 7:04am

Sun Sep 19, 6:04am

Sun Sep 19, 5:04am

Sun Sep 19, 4:04am

Sun Sep 19, 3:04am

Sun Sep 19, 2:04am

Sun Sep 19, 12:04am

Sat Sep 18, 11:05pm

Sat Sep 18, 10:04pm

Sat Sep 18, 9:04pm

Sat Sep 18, 8:04pm

Sat Sep 18, 7:04pm

Sat Sep 18, 6:04pm

Sat Sep 18, 5:04pm

Sat Sep 18, 4:04pm

Sat Sep 18, 3:04pm

Sat Sep 18, 2:04pm

Sat Sep 18, 1:04pm

Sat Sep 18, 12:04pm

Sat Sep 18, 11:04am

Sat Sep 18, 10:04am

Sat Sep 18, 9:04am

Sat Sep 18, 8:04am

Sat Sep 18, 7:04am

Sat Sep 18, 6:04am

Sat Sep 18, 5:04am

Sat Sep 18, 4:04am

Sat Sep 18, 3:04am

Sat Sep 18, 2:04am

Sat Sep 18, 1:04am

Sat Sep 18, 12:04am

Fri Sep 17, 11:04pm

Fri Sep 17, 10:04pm

Fri Sep 17, 9:04pm

Fri Sep 17, 8:04pm

Fri Sep 17, 7:04pm

Fri Sep 17, 6:04pm

Fri Sep 17, 5:04pm

Fri Sep 17, 4:04pm

Fri Sep 17, 3:04pm

Fri Sep 17, 2:04pm

Fri Sep 17, 1:04pm

Fri Sep 17, 12:05pm

Fri Sep 17, 11:04am

Fri Sep 17, 10:04am

Fri Sep 17, 9:04am

Fri Sep 17, 8:04am

Fri Sep 17, 7:04am

Fri Sep 17, 6:04am

Fri Sep 17, 5:04am

Fri Sep 17, 4:04am

Fri Sep 17, 3:04am

Fri Sep 17, 2:04am

Fri Sep 17, 1:04am

Fri Sep 17, 12:04am

Thu Sep 16, 11:04pm

Thu Sep 16, 10:04pm

Thu Sep 16, 9:04pm

Thu Sep 16, 8:04pm

Thu Sep 16, 7:04pm

Thu Sep 16, 6:04pm

Thu Sep 16, 5:04pm

Thu Sep 16, 4:04pm

Thu Sep 16, 3:04pm

Thu Sep 16, 2:04pm

Thu Sep 16, 1:05pm

Thu Sep 16, 12:04pm

Thu Sep 16, 11:05am

Thu Sep 16, 10:05am

Thu Sep 16, 9:04am

Thu Sep 16, 8:04am

Thu Sep 16, 7:04am

Thu Sep 16, 6:04am

Thu Sep 16, 5:04am

Thu Sep 16, 4:04am

Thu Sep 16, 3:04am

Thu Sep 16, 2:04am

Thu Sep 16, 1:04am

Thu Sep 16, 12:04am

Wed Sep 15, 11:04pm

Wed Sep 15, 10:04pm

Wed Sep 15, 9:04pm

Wed Sep 15, 8:04pm

Wed Sep 15, 7:04pm

Wed Sep 15, 6:04pm

Wed Sep 15, 5:05pm

Wed Sep 15, 4:04pm

Wed Sep 15, 3:04pm

Wed Sep 15, 2:04pm

Meta data:

ID: 17abc9bc-1025-46f0-8d7f-7f71975ed05f
Link: https://api.weather.gov/products/17abc9bc-1025-46f0-8d7f-7f71975ed05f